Other Public Products
Issued by NWS Charleston, SC

Current Version | Previous Version | Text Only | Print | Product List | Glossary Off
Versions: 1 2 3 4 5 6 7 8 9 10 11 12 13 14 15 16 17 18 19 20 21 22 23 24 25 26 27 28 29 30 31 32 33 34 35 36 37 38 39 40 41 42 43 44 45 46 47 48 49 50

797
FPUS82 KCHS 250226
OPUCHS

TEST...KCHS/KSAV Gateway Observations...TEST
National Weather Service Charleston SC
900 PM EST FRI FEB 24 2017

NOTE: "fair" indicates few or no clouds below 12,000 feet with no
significant weather and/or obstructions to visibility.

SCZ050-WAZ558-NCZ071-TXZ119-213-PAZ071-DCZ001-FLZ074-172-MI076-
NYZ176-178-MAZ016-IL014-TNZ027-NJZ106-GAZ044-MD014-250300-
...Gateway Observations for Charleston International...

CITY           SKY/WX    TMP DP  RH WIND       PRES   REMARKS
Chas Airport   CLEAR     63  58  83 SE6       29.85R
Seattle        PTCLDY    42  29  59 W5        30.17R
Charlotte      MOCLDY    66  51  58 S6        29.82S
Dallas DFW     CLEAR     55  30  38 NW17      29.99R
Dallas Love    CLEAR     56  29  35 NW8       30.01R
Philladelphia  PTCLDY    62  57  83 S15       29.84F
Wash National  MOCLDY    62  57  83 S10       29.81R
Baltimore      PTCLDY    62  60  93 S7        29.81S
Miami          MOCLDY    73  67  81 SE7       29.84R
Detroit        CLOUDY    61  53  75 S12       29.44F
Newark         PTCLDY    61  55  81 S8        29.85S
Laguardia      PTCLDY    59  55  87 S14       29.86R
J F K          FOG       51  51 100 S16       29.88S VSB 1/2
Boston Logan   PTCLDY    56  53  90 S13       29.89S
Ft. Lauderdale MOCLDY    75  68  78 NE5       29.83R
Chicago O`Hare DRIZZLE   38  35  89 W12       29.55R WCI  30
Chicago Midway MOCLDY    39  35  86 W9        29.57R WCI  33
Houston Bush   CLEAR     67  43  41 NW16      29.88R
Houston Hobby  CLEAR     70  39  32 NW18      29.86R
Nashville      CLOUDY    68  52  56 SW8       29.68R THUNDER
Atlanta        MOCLDY    68  53  58 S6        29.80S

$$

GAZ044-118-TXZ119-213-NCZ071-DCZ001-MDZ014-506-PAZ021-071-NJZ106-
NYZ176-178-MAZ106-OHZ011-021-055-MIZ076-KYZ091-ILZ014-INZ047-
MNZ060-ONZ431-250300-
...Gateway Observations for Savannah International...

CITY           SKY/WX    TMP DP  RH WIND       PRES   REMARKS
Savannah Arpt  CLEAR     65  60  84 SE7       29.85S
Atlanta        MOCLDY    68  53  58 S6        29.80S
Charlotte      MOCLDY    66  51  58 S6        29.82S
Dallas DFW     CLEAR     55  30  38 NW17      29.99R
Houston Bush   CLEAR     67  43  41 NW16      29.88R
Wash National  MOCLDY    62  57  83 S10       29.81R
Wash Dulles    MOCLDY    65  54  67 SE10      29.79S
Baltimore      PTCLDY    62  60  93 S7        29.81S
Philadelphia   PTCLDY    62  57  83 S15       29.84F
Newark         PTCLDY    61  55  81 S8        29.85S
Laguardia      PTCLDY    59  55  87 S14       29.86R
J F K          FOG       51  51 100 S16       29.88S VSB 1/2
Boston         PTCLDY    56  53  90 S13       29.89S
Pittsburg      MOCLDY    61  47  59 SE3       29.60F
Akron          PTCLDY    65  48  54 SE8       29.56F
Cleveland      CLOUDY    71  48  43 VRB3      29.53F THUNDER
Cincinnati     LGT RAIN  61  57  87 SW9       29.57R
Columbus       TSTM      67  50  54 S8        29.53S
Detroit        CLOUDY    61  53  75 S12       29.44F
Chicago O`Hare DRIZZLE   38  35  89 W12       29.55R WCI  30
Minneapolis    CLOUDY    23   9  55 N21G26    29.88R WCI   8
Indianapolis   CLOUDY    49  43  80 W20G29    29.64R
Toronto Canada CLOUDY    39  37  93 SE7       29.59F FOG     WCI  34

$$




USA.gov is the U.S. government's official web portal to all federal, state and local government web resources and services.